TimeCST,TemperatureF,Dew PointF,Humidity,Sea Level PressureIn,VisibilityMPH,Wind Direction,Wind SpeedMPH,Gust SpeedMPH,PrecipitationIn,Events,Conditions,WindDirDegrees,DateUTC
12:15 AM,45.7,31.1,57,30.05,10.0,Calm,Calm,-,N/A,,Clear,0,2013-03-04 06:15:00
12:35 AM,45.5,31.5,58,30.05,10.0,Calm,Calm,-,N/A,,Clear,0,2013-03-04 06:35:00
12:55 AM,45.5,31.8,59,30.04,10.0,South,5.8,-,N/A,,Clear,170,2013-03-04 06:55:00
1:15 AM,45.0,32.0,60,30.03,10.0,Calm,Calm,-,N/A,,Clear,0,2013-03-04 07:15:00
1:55 AM,45.5,32.0,59,30.02,10.0,South,4.6,-,N/A,,Clear,170,2013-03-04 07:55:00
2:15 AM,45.7,32.0,59,30.02,10.0,Calm,Calm,-,N/A,,Clear,0,2013-03-04 08:15:00
2:35 AM,45.7,32.4,60,30.01,10.0,Calm,Calm,-,N/A,,Clear,0,2013-03-04 08:35:00
2:55 AM,45.5,32.9,61,30.01,10.0,Calm,Calm,-,N/A,,Clear,0,2013-03-04 08:55:00
3:15 AM,45.0,33.4,64,29.99,10.0,South,6.9,-,N/A,,Clear,170,2013-03-04 09:15:00
3:35 AM,45.1,33.8,65,29.98,10.0,South,4.6,-,N/A,,Clear,170,2013-03-04 09:35:00
3:55 AM,44.8,34.0,66,29.98,10.0,South,6.9,-,N/A,,Clear,170,2013-03-04 09:55:00
4:15 AM,44.2,34.7,69,29.98,10.0,Calm,Calm,-,N/A,,Clear,0,2013-03-04 10:15:00
4:35 AM,44.2,35.1,70,29.98,10.0,South,4.6,-,N/A,,Clear,170,2013-03-04 10:35:00
4:55 AM,45.0,35.8,70,29.98,10.0,SSE,3.5,-,N/A,,Clear,160,2013-03-04 10:55:00
5:15 AM,45.0,36.0,71,29.98,10.0,SSE,5.8,-,N/A,,Clear,160,2013-03-04 11:15:00
5:35 AM,44.6,36.1,72,29.97,10.0,SSE,3.5,-,N/A,,Clear,160,2013-03-04 11:35:00
6:15 AM,44.6,37.4,76,29.96,10.0,Calm,Calm,-,N/A,,Clear,0,2013-03-04 12:15:00
6:35 AM,44.6,37.8,77,29.97,10.0,Calm,Calm,-,N/A,,Clear,0,2013-03-04 12:35:00
6:55 AM,44.6,38.1,78,29.97,10.0,Calm,Calm,-,N/A,,Clear,0,2013-03-04 12:55:00
7:15 AM,45.7,38.8,77,29.97,10.0,Calm,Calm,-,N/A,,Clear,0,2013-03-04 13:15:00
7:55 AM,49.1,40.5,72,29.97,10.0,SSE,4.6,-,N/A,,Clear,160,2013-03-04 13:55:00
8:15 AM,50.9,41.5,70,29.97,10.0,SSE,4.6,-,N/A,,Clear,160,2013-03-04 14:15:00
8:35 AM,54.3,43.2,66,29.97,10.0,South,10.4,18.4,N/A,,Clear,170,2013-03-04 14:35:00
8:55 AM,55.8,44.4,66,29.95,10.0,South,12.7,19.6,N/A,,Clear,170,2013-03-04 14:55:00
9:15 AM,57.4,45.5,65,29.95,10.0,South,12.7,23.0,N/A,,Clear,170,2013-03-04 15:15:00
9:35 AM,59.4,46.0,61,29.94,10.0,South,12.7,21.9,N/A,,Clear,170,2013-03-04 15:35:00
9:55 AM,60.8,46.6,59,29.93,10.0,South,17.3,24.2,N/A,,Clear,170,2013-03-04 15:55:00
10:15 AM,61.9,47.3,59,29.91,10.0,South,20.7,27.6,N/A,,Clear,180,2013-03-04 16:15:00
10:35 AM,63.5,47.8,57,29.91,10.0,South,15.0,28.8,N/A,,Clear,170,2013-03-04 16:35:00
10:55 AM,63.9,48.2,57,29.89,10.0,South,18.4,27.6,N/A,,Clear,180,2013-03-04 16:55:00
11:15 AM,65.7,48.7,54,29.87,10.0,SSW,15.0,26.5,N/A,,Clear,200,2013-03-04 17:15:00
11:35 AM,66.4,48.4,52,29.87,10.0,South,19.6,32.2,N/A,,Clear,180,2013-03-04 17:35:00
11:55 AM,67.1,48.7,52,29.86,10.0,South,23.0,32.2,N/A,,Clear,180,2013-03-04 17:55:00
12:15 PM,66.9,49.1,53,29.85,10.0,South,19.6,29.9,N/A,,Clear,180,2013-03-04 18:15:00
12:35 PM,67.6,49.1,51,29.84,10.0,South,19.6,29.9,N/A,,Clear,170,2013-03-04 18:35:00
12:55 PM,70.0,49.6,48,29.83,10.0,South,18.4,26.5,N/A,,Clear,180,2013-03-04 18:55:00
1:15 PM,72.0,50.0,46,29.82,10.0,South,17.3,27.6,N/A,,Clear,170,2013-03-04 19:15:00
1:35 PM,74.5,49.3,41,29.79,10.0,South,18.4,31.1,N/A,,Clear,180,2013-03-04 19:35:00
1:55 PM,74.3,49.8,42,29.79,10.0,South,16.1,29.9,N/A,,Clear,180,2013-03-04 19:55:00
2:15 PM,75.4,50.2,41,29.79,10.0,South,19.6,31.1,N/A,,Scattered Clouds,180,2013-03-04 20:15:00
2:35 PM,73.0,50.0,44,29.79,10.0,South,17.3,27.6,N/A,,Scattered Clouds,190,2013-03-04 20:35:00
2:55 PM,75.7,50.7,41,29.77,10.0,South,17.3,25.3,N/A,,Scattered Clouds,190,2013-03-04 20:55:00
3:15 PM,75.4,50.5,42,29.77,10.0,South,16.1,21.9,N/A,,Scattered Clouds,180,2013-03-04 21:15:00
3:35 PM,75.7,49.6,40,29.75,10.0,South,19.6,25.3,N/A,,Scattered Clouds,180,2013-03-04 21:35:00
3:55 PM,74.7,49.6,41,29.76,10.0,South,11.5,29.9,N/A,,Scattered Clouds,190,2013-03-04 21:55:00
4:15 PM,74.3,49.8,42,29.76,10.0,South,17.3,28.8,N/A,,Scattered Clouds,180,2013-03-04 22:15:00
4:35 PM,74.1,50.4,43,29.75,10.0,South,12.7,24.2,N/A,,Scattered Clouds,190,2013-03-04 22:35:00
4:55 PM,73.6,50.9,45,29.76,10.0,South,12.7,25.3,N/A,,Scattered Clouds,190,2013-03-04 22:55:00
5:35 PM,72.1,51.3,48,29.76,10.0,South,13.8,20.7,N/A,,Scattered Clouds,180,2013-03-04 23:35:00
5:55 PM,71.6,51.6,49,29.76,10.0,South,10.4,25.3,N/A,,Clear,190,2013-03-04 23:55:00
6:15 PM,70.7,51.8,51,29.76,10.0,South,10.4,20.7,N/A,,Clear,190,2013-03-05 00:15:00
6:35 PM,70.0,52.0,53,29.77,10.0,South,12.7,23.0,N/A,,Clear,180,2013-03-05 00:35:00
6:55 PM,69.4,52.3,54,29.77,10.0,South,17.3,21.9,N/A,,Clear,190,2013-03-05 00:55:00
7:15 PM,68.9,52.7,56,29.78,10.0,South,6.9,16.1,N/A,,Clear,180,2013-03-05 01:15:00
7:35 PM,67.3,52.9,60,29.79,10.0,Calm,Calm,-,N/A,,Scattered Clouds,0,2013-03-05 01:35:00
7:55 PM,67.1,53.2,61,29.79,10.0,South,5.8,-,N/A,,Overcast,170,2013-03-05 01:55:00
8:35 PM,67.5,53.8,61,29.80,10.0,Calm,Calm,-,N/A,,Overcast,0,2013-03-05 02:35:00
8:55 PM,66.7,54.3,64,29.81,10.0,South,6.9,-,N/A,,Overcast,170,2013-03-05 02:55:00
9:15 PM,66.4,54.5,66,29.82,10.0,South,6.9,-,N/A,,Overcast,180,2013-03-05 03:15:00
9:35 PM,66.2,55.0,67,29.82,10.0,South,6.9,-,N/A,,Mostly Cloudy,170,2013-03-05 03:35:00
9:55 PM,66.2,55.4,68,29.82,10.0,South,8.1,-,N/A,,Mostly Cloudy,170,2013-03-05 03:55:00
10:15 PM,66.2,55.6,69,29.82,10.0,South,9.2,-,N/A,,Mostly Cloudy,180,2013-03-05 04:15:00
10:55 PM,66.7,56.3,69,29.82,10.0,South,11.5,17.3,N/A,,Overcast,180,2013-03-05 04:55:00
11:15 PM,66.9,56.7,70,29.82,10.0,South,11.5,19.6,N/A,,Overcast,190,2013-03-05 05:15:00
11:35 PM,66.9,56.8,70,29.82,10.0,South,10.4,17.3,N/A,,Overcast,180,2013-03-05 05:35:00
11:55 PM,66.9,57.2,71,29.82,10.0,South,10.4,16.1,N/A,,Overcast,180,2013-03-05 05:55:00